Timeline UpdatesTrip UpdatesNews PostsPvt PostsTravel TipsAdmin PostsConv PostsFollowed PostsChat RequestsBlog PostsPNR Posts

Disclaimer
Search
 
 
Sat Sep 20, 2014 09:26:31 ISTHomeTrainsΣChainsAtlasPNRForumGalleryNewsFAQTripsMembersLoginFeedback
No Recent News for this Train
Other Trains in the News **new
Latest...
Departure from Mangalore Central on 26th August, to be delayed by more than 4 hours due to late arrival of 12619
Tue Aug 26, 2014 (12:06PM)
⇐ Return Journey: Train# 16347

16348/Mangalore - Trivandrum Express

OLD Time-Table. Will be Updated soon.
Aug 31 (2:49PM)
Change Departure Station:
Change Arrival Station:
Post a Train Travel TipPost a Train Travel Tip **new
Post a Comment/Question/Picture/VideoPost a Comment/Question/Picture/Video
Pantry/Catering
✕ NO Pantry Car
✓ Catering Avbl
RSA - Rake Sharing
Author: Srivatsa Udupa; Entry# 339734 RSA; Permanent RSA with 12619/12620 MatsyaGandha Express
Rake/Coach Composition
SLR-UR-UR-S1-S2-S3-S4-S5-S6- S7-S8-S9-S10-S11-B1-B2-B3-A1-UR-UR-UR-SLR- Loco; .; De-reseved: Cannanore-Calicut S6
Loco
MAQ to SRR GOC WDP-4D SRR to TVC ED/RPM WAP4
News    PNR    Forum    Time-Table    Availability    Fare Chart    Map    Arr/Dep History    Trips    Gallery    ΣChains    X/O    Timeline    
Travel Time: 3h 3m    11 halts    Distance: 126 km    Avg Speed: 41 km/hr
Type: Mail/Express
Zone: SR/Southern
Departs @ 01:42
Platform# 1
SMTWTFS
Chengannur/CNGR 
Arrives @ 04:45
Platform# 2
SMTWTFS
Trivandrum Central/TVC 

11 halts. 25 intermediate Stations between Chengannur and Trivandrum Central

Show ALL intermediate Stations  Show Old Time-Table

#CodeStation NameX/OArrivesAvgDepartsAvgHaltPFDay#KmSpeedElevZoneAddress
1MAQMangalore Central (4)  -14:20-31-506.36314mSRMangalore 575001, Karnataka
2KMQKumbala (2)  14:54 14:52-14:55 14:53-1m11-472.88123mSRKumbla, Kerala
3KGQKasaragod (3)  15:05 15:02-15:07 15:04-2m11-460.55218mSRTel: 04994 220800, Kerala
4KQKKottikkulam (2)  15:16 15:15-15:17 15:16-1m--1-451.18225mSRBekal, Kerala
5KZEKanhangad (3)X  15:28 15:26-15:30 15:28-2m--1-437.45115mSRKanhangad, Kerala
6NLENileshwar (2)  15:39-15:40-1m--1-428.24512mSRNileswaram, Kerala
7CHVCharvattur (3)X  15:47-15:48-1m--1-422.912814mSRKasaragod district, Kerala
8TKQTrikkarippur  15:52-15:53-1m--1-414.35313mSRKasargod district, Kerala
9PAYPayyanur (3)  16:00-16:02-2m--1-408.1780mSRKannur District, Kerala
10PAZPayangadi (2)X  16:11-16:12-1m21-396.56412mSRKannur District, Kerala
11KPQKannapuram (2)  16:19-16:20-1m21-389.0229mSRKannur District, Kerala
12CANKannur Main (4)  17:00-17:05-5m31-374.56514mSRKannur Tel: 0497 2705555, Kerala
13TLYThalassery (2)  17:23 17:24-17:25 17:26-2m--1-353.8629mSRKannur, Kerala
14MAHEMahe (2)X  17:33 17:35-17:35 17:37-2m--1-344.67716mSRMahe, Puducherry
15BDJVadakara (2)  17:43 17:47-17:45 17:49-2m11-331.77711mSRCalicut / Station Ph No : 0496-2524254, Kerala
16QLDKoyilandy (3)  18:04 18:06-18:05 18:07-1m--1-309.83811mSRQuilandi, Kerala
17CLTKozhikode Main (4)X  18:45-18:50-5m--1-285.44311mSRCalicut Tel: 0495 2701234, Kerala
18FKFerok (2)  19:04-19:05-1m--1-275.54719mSRFeroke, Kerala
19VLIVallikunnu (2)  19:18-19:19-1m--1-265.34313mSRVallikkunnu, Kerala
20PGIParappangadi (2)  19:26-19:27-1m--1-260.35419mSRParappanangadi, Kerala
21TATanur (3)X  19:36-19:37-1m--1-252.25311mSRMalappuram, Kerala
22TIRTirur (3)X  19:46-19:48-2m--1-244.2539mSRTel: 0494 2422240, Kerala
23KTUKuttippuram (2)  20:05-20:07-2m--1-229.16517mSRKuttippuram, Kerala
24PTBPattambi (2)X  20:24-20:25-1m--1-210.72021mSRPattambi, Kerala
25SRRShoranur Junction (7)  21:00-21:10-10m51-199.15226mSRShoranur ph.no 0466-2222913, Kerala
26WKIWadakkanchery (2)  21:34 21:29-21:35 21:30-1m11-182.65240mSRWadackanchery, Kerala
27TCRThrissur (4)X  21:58 21:49-22:01 21:50-3 1m11-166.2756mSRThrissur Tel: 0487 2423150, Kerala
28IJKIrinjalakkuda (2)X  22:27 22:09-22:28 22:10-1m--1-142.45518mSRKalletumkara, Kerala
29CKIChalakkudy (3)  22:37 22:17-22:38 22:18-1m11-136.0709mSRPh: 0480- 2701368, Kerala
30AFKAngamaly for Kalady (3)  22:51 22:31-22:52 22:32-1m--1-120.83516mSRPhone: 0484-2452340, Kerala
31AWYAluva (3)X  23:01 22:48-23:03 22:50-2m11-111.62212mSRPh: 0484-2624141, Kerala
32ERNErnakulam Town (North) (2)X  23:35-23:40-5m21-94.7569mSRTel: 0484 2395198, Kerala
33PVRDPiravom Road  00:14 00:11-00:15 00:12-1m--2-66.04812mSRKottayam, Kerala
34KTYMKottayam (3)  00:55 00:51-01:00 00:55-5 4m--2-34.85615mSRTel: 0481 2563535, Kerala
35CGYChanganassery (3)  01:18 01:14-01:20 01:15-2 1m--2-16.95211mSRPh: 0481- 2420108, Kerala
36TRVLTiruvalla (2)  01:28 01:24-01:30 01:25-2 1m--2-9.13427mSRPh: 0469-2601314, Kerala
37CNGRChengannur (3)»  01:38 01:41-01:40 01:42-2 1m120.0636mSRPh: 0479-2452340, Kerala
38MVLKMavelikara (3)X  01:53 01:54-01:55-2 1m3212.52613mSRMavelikkara Ph: 0479-2302249, Kerala
39KYJKayamkulam Junction (5)X  02:13-02:15-2m--220.25911mSRAlappuzha Ph;0479-2442042, Kerala
40KPYKarunagappalli (2)  02:28 02:29-02:30-2 1m--233.95712mSRKollam Dist, Kerala
41STKTSasthamkotta (2)02:38-02:39-1m--241.6560mSRKollam Dist, Kerala
42QLNKollam Junction (6)  03:05 03:00-03:10 03:05-5m1261.05916mSRKollam 0474-2746194, Kerala
43MYYMayyanad (2)  03:19 03:14-03:20 03:15-1m--269.95321mSRMayyanad, Kerala
44PVUParavur (3)  03:24 03:19-03:25 03:20-1m--273.47518mSRParavoor, Kerala
45VAKVarkala Sivagiri (3)  03:35 03:29-03:37 03:30-2 1m--284.76152mSREdava Kappil Road, Kerala
46KVUKadakavur (3)  03:46 03:39-03:47 03:40-1m--293.83720mSRKadakkavoor, Kerala
47CRYChirayinkeezhu (2)  03:51 03:45-03:52 03:46-1m--296.96919mSRChirayinkeezhu, Kerala
48TVPThiruvananthapuram Pettah (2)  04:19 04:09-04:20 04:10-1m--2123.3418mSRTrivandrum Ph: 04712470181, Kerala
49TVCTrivandrum Central (5)•  04:45--22125.6-12mSRThiruvananthapuram 695001, Kerala
Scroll to Top
Scroll to Bottom